Time,TemperatureF,DewpointF,PressureIn,WindDirection,WindDirectionDegrees,WindSpeedMPH,WindSpeedGustMPH,Humidity,HourlyPrecipIn,Conditions,Clouds,dailyrainin,SoftwareType,DateUTC
2013-05-19 00:02:00,53.6,38.0,29.57,WSW,250,0.0,1.0,57,0.00,,,0.00,weatherlink.com 1.10,2013-05-19 06:02:00,
2013-05-19 00:18:00,52.4,39.0,29.57,WSW,250,0.0,1.0,60,0.00,,,0.00,weatherlink.com 1.10,2013-05-19 06:18:00,
2013-05-19 00:33:00,52.0,39.0,29.56,ESE,112,0.0,1.0,61,0.00,,,0.00,weatherlink.com 1.10,2013-05-19 06:33:00,
2013-05-19 00:48:00,51.7,39.0,29.57,WSW,246,0.0,1.0,62,0.00,,,0.00,weatherlink.com 1.10,2013-05-19 06:48:00,
2013-05-19 01:03:00,52.0,39.0,29.56,SSW,203,0.0,1.0,61,0.00,,,0.00,weatherlink.com 1.10,2013-05-19 07:03:00,
2013-05-19 01:18:00,52.1,39.0,29.57,WSW,243,0.0,1.0,61,0.00,,,0.00,weatherlink.com 1.10,2013-05-19 07:18:00,
2013-05-19 01:33:00,52.0,38.0,29.57,WSW,237,1.0,2.0,60,0.00,,,0.00,weatherlink.com 1.10,2013-05-19 07:33:00,
2013-05-19 01:48:00,51.8,37.0,29.57,WSW,239,0.0,1.0,58,0.00,,,0.00,weatherlink.com 1.10,2013-05-19 07:48:00,
2013-05-19 02:03:00,50.4,36.0,29.58,WSW,239,0.0,1.0,59,0.00,,,0.00,weatherlink.com 1.10,2013-05-19 08:03:00,
2013-05-19 02:18:00,51.1,34.0,29.57,WNW,288,0.0,2.0,53,0.00,,,0.00,weatherlink.com 1.10,2013-05-19 08:18:00,
2013-05-19 02:33:00,52.3,33.0,29.57,WSW,245,0.0,2.0,49,0.00,,,0.00,weatherlink.com 1.10,2013-05-19 08:33:00,
2013-05-19 02:48:00,52.7,32.0,29.57,WSW,255,0.0,5.0,46,0.00,,,0.00,weatherlink.com 1.10,2013-05-19 08:48:00,
2013-05-19 03:03:00,53.9,32.0,29.56,WSW,253,2.0,9.0,43,0.00,,,0.00,weatherlink.com 1.10,2013-05-19 09:03:00,
2013-05-19 03:18:00,54.4,32.0,29.56,West,259,4.0,8.0,42,0.00,,,0.00,weatherlink.com 1.10,2013-05-19 09:18:00,
2013-05-19 03:33:00,54.6,32.0,29.56,West,266,3.0,9.0,42,0.00,,,0.00,weatherlink.com 1.10,2013-05-19 09:33:00,
2013-05-19 03:48:00,54.3,32.0,29.57,WSW,249,3.0,9.0,43,0.00,,,0.00,weatherlink.com 1.10,2013-05-19 09:48:00,
2013-05-19 04:03:00,54.1,32.0,29.57,West,266,1.0,5.0,43,0.00,,,0.00,weatherlink.com 1.10,2013-05-19 10:03:00,
2013-05-19 04:18:00,54.5,32.0,29.57,West,273,4.0,8.0,43,0.00,,,0.00,weatherlink.com 1.10,2013-05-19 10:18:00,
2013-05-19 04:33:00,54.8,32.0,29.56,SW,226,1.0,7.0,42,0.00,,,0.00,weatherlink.com 1.10,2013-05-19 10:33:00,
2013-05-19 04:48:00,54.3,32.0,29.56,SW,235,0.0,3.0,43,0.00,,,0.00,weatherlink.com 1.10,2013-05-19 10:48:00,
2013-05-19 05:03:00,54.1,32.0,29.56,NNW,328,3.0,3.0,43,0.00,,,0.00,weatherlink.com 1.10,2013-05-19 11:03:00,
2013-05-19 05:18:00,55.3,31.0,29.56,SW,235,2.0,6.0,40,0.00,,,0.00,weatherlink.com 1.10,2013-05-19 11:18:00,
2013-05-19 05:33:00,55.0,33.0,29.57,SW,215,0.0,8.0,44,0.00,,,0.00,weatherlink.com 1.10,2013-05-19 11:33:00,
2013-05-19 05:48:00,53.8,32.0,29.56,ENE,77,0.0,2.0,44,0.00,,,0.00,weatherlink.com 1.10,2013-05-19 11:48:00,
2013-05-19 06:03:00,55.5,29.0,29.56,WNW,297,0.0,6.0,37,0.00,,,0.00,weatherlink.com 1.10,2013-05-19 12:03:00,
2013-05-19 06:18:00,54.9,30.0,29.57,West,278,0.0,2.0,39,0.00,,,0.00,weatherlink.com 1.10,2013-05-19 12:18:00,
2013-05-19 06:33:00,55.2,30.0,29.57,ENE,74,0.0,2.0,38,0.00,,,0.00,weatherlink.com 1.10,2013-05-19 12:33:00,
2013-05-19 06:48:00,55.1,34.0,29.58,ENE,60,0.0,1.0,45,0.00,,,0.00,weatherlink.com 1.10,2013-05-19 12:48:00,
2013-05-19 07:03:00,55.6,36.0,29.58,ENE,60,0.0,0.0,48,0.00,,,0.00,weatherlink.com 1.10,2013-05-19 13:03:00,
2013-05-19 07:18:00,55.9,38.0,29.58,SE,141,0.0,2.0,52,0.00,,,0.00,weatherlink.com 1.10,2013-05-19 13:18:00,
2013-05-19 07:33:00,58.0,35.0,29.58,SSE,162,0.0,1.0,42,0.00,,,0.00,weatherlink.com 1.10,2013-05-19 13:33:00,
2013-05-19 07:48:00,58.6,34.0,29.58,East,88,0.0,1.0,39,0.00,,,0.00,weatherlink.com 1.10,2013-05-19 13:48:00,
2013-05-19 08:03:00,59.2,32.0,29.57,West,272,0.0,3.0,36,0.00,,,0.00,weatherlink.com 1.10,2013-05-19 14:03:00,
2013-05-19 08:18:00,60.4,32.0,29.57,WSW,237,2.0,6.0,34,0.00,,,0.00,weatherlink.com 1.10,2013-05-19 14:18:00,
2013-05-19 08:33:00,60.7,30.0,29.56,WSW,258,4.0,7.0,32,0.00,,,0.00,weatherlink.com 1.10,2013-05-19 14:33:00,
2013-05-19 08:48:00,59.9,31.0,29.56,West,281,0.0,7.0,33,0.00,,,0.00,weatherlink.com 1.10,2013-05-19 14:48:00,
2013-05-19 09:03:00,60.8,32.0,29.55,West,266,6.0,6.0,34,0.00,,,0.00,weatherlink.com 1.10,2013-05-19 15:03:00,
2013-05-19 09:19:00,62.4,30.0,29.55,North,349,3.0,6.0,29,0.00,,,0.00,weatherlink.com 1.10,2013-05-19 15:19:00,
2013-05-19 09:34:00,63.9,31.0,29.54,NNE,16,2.0,5.0,29,0.00,,,0.00,weatherlink.com 1.10,2013-05-19 15:34:00,
2013-05-19 09:49:00,64.4,31.0,29.54,WNW,284,3.0,6.0,29,0.00,,,0.00,weatherlink.com 1.10,2013-05-19 15:49:00,
2013-05-19 10:04:00,63.9,31.0,29.53,WNW,297,4.0,8.0,29,0.00,,,0.00,weatherlink.com 1.10,2013-05-19 16:04:00,
2013-05-19 10:19:00,64.1,31.0,29.52,North,357,0.0,11.0,29,0.00,,,0.00,weatherlink.com 1.10,2013-05-19 16:19:00,
2013-05-19 10:34:00,64.9,31.0,29.52,NW,308,1.0,12.0,28,0.00,,,0.00,weatherlink.com 1.10,2013-05-19 16:34:00,
2013-05-19 10:49:00,66.6,30.0,29.52,WNW,294,3.0,10.0,25,0.00,,,0.00,weatherlink.com 1.10,2013-05-19 16:49:00,
2013-05-19 11:04:00,65.7,29.0,29.52,WNW,295,4.0,13.0,25,0.00,,,0.00,weatherlink.com 1.10,2013-05-19 17:04:00,
2013-05-19 11:19:00,65.7,27.0,29.52,West,277,3.0,12.0,23,0.00,,,0.00,weatherlink.com 1.10,2013-05-19 17:19:00,
2013-05-19 11:34:00,66.2,31.0,29.51,WNW,284,4.0,13.0,27,0.00,,,0.00,weatherlink.com 1.10,2013-05-19 17:34:00,
2013-05-19 11:49:00,66.9,28.0,29.51,WNW,294,6.0,9.0,23,0.00,,,0.00,weatherlink.com 1.10,2013-05-19 17:49:00,
2013-05-19 12:04:00,66.5,26.0,29.50,NW,314,3.0,6.0,22,0.00,,,0.00,weatherlink.com 1.10,2013-05-19 18:04:00,
2013-05-19 12:19:00,66.5,25.0,29.49,NNW,332,4.0,12.0,21,0.00,,,0.00,weatherlink.com 1.10,2013-05-19 18:19:00,
2013-05-19 12:34:00,67.4,24.0,29.49,West,277,4.0,10.0,19,0.00,,,0.00,weatherlink.com 1.10,2013-05-19 18:34:00,
2013-05-19 12:49:00,68.7,27.0,29.48,NNW,332,3.0,16.0,21,0.00,,,0.00,weatherlink.com 1.10,2013-05-19 18:49:00,
2013-05-19 13:04:00,68.3,26.0,29.48,NNW,338,3.0,9.0,20,0.00,,,0.00,weatherlink.com 1.10,2013-05-19 19:04:00,
2013-05-19 13:19:00,67.9,28.0,29.48,WSW,255,4.0,10.0,22,0.00,,,0.00,weatherlink.com 1.10,2013-05-19 19:19:00,
2013-05-19 13:35:00,68.9,28.0,29.48,North,354,5.0,12.0,22,0.00,,,0.00,weatherlink.com 1.10,2013-05-19 19:35:00,
2013-05-19 13:49:00,69.1,22.0,29.48,WNW,287,1.0,7.0,17,0.00,,,0.00,weatherlink.com 1.10,2013-05-19 19:49:00,
2013-05-19 14:04:00,70.5,27.0,29.48,West,273,7.0,11.0,20,0.00,,,0.00,weatherlink.com 1.10,2013-05-19 20:04:00,
2013-05-19 14:19:00,69.9,28.0,29.48,SW,217,3.0,16.0,21,0.00,,,0.00,weatherlink.com 1.10,2013-05-19 20:19:00,
2013-05-19 14:34:00,70.2,30.0,29.48,SSE,162,0.0,10.0,22,0.00,,,0.00,weatherlink.com 1.10,2013-05-19 20:34:00,
2013-05-19 14:49:00,71.2,27.0,29.48,West,266,3.0,10.0,19,0.00,,,0.00,weatherlink.com 1.10,2013-05-19 20:49:00,
2013-05-19 15:04:00,70.6,24.0,29.48,WNW,288,7.0,11.0,17,0.00,,,0.00,weatherlink.com 1.10,2013-05-19 21:04:00,
2013-05-19 15:19:00,70.6,28.0,29.48,NNW,331,1.0,9.0,20,0.00,,,0.00,weatherlink.com 1.10,2013-05-19 21:19:00,
2013-05-19 15:34:00,70.1,28.0,29.48,West,269,4.0,8.0,21,0.00,,,0.00,weatherlink.com 1.10,2013-05-19 21:34:00,
2013-05-19 15:49:00,69.9,26.0,29.48,NNW,328,5.0,12.0,19,0.00,,,0.00,weatherlink.com 1.10,2013-05-19 21:49:00,
2013-05-19 16:04:00,70.5,31.0,29.49,NNE,22,2.0,11.0,23,0.00,,,0.00,weatherlink.com 1.10,2013-05-19 22:04:00,
2013-05-19 16:19:00,68.6,30.0,29.49,NE,54,5.0,13.0,24,0.00,,,0.00,weatherlink.com 1.10,2013-05-19 22:19:00,
2013-05-19 16:34:00,68.6,29.0,29.50,NE,37,3.0,10.0,23,0.00,,,0.00,weatherlink.com 1.10,2013-05-19 22:34:00,
2013-05-19 16:49:00,68.3,29.0,29.50,NW,314,5.0,10.0,23,0.00,,,0.00,weatherlink.com 1.10,2013-05-19 22:49:00,
2013-05-19 17:04:00,65.5,32.0,29.51,NNW,344,5.0,14.0,29,0.00,,,0.00,weatherlink.com 1.10,2013-05-19 23:04:00,
2013-05-19 17:19:00,66.4,31.0,29.51,NW,314,6.0,14.0,27,0.00,,,0.00,weatherlink.com 1.10,2013-05-19 23:19:00,
2013-05-19 17:34:00,67.1,33.0,29.51,NE,39,2.0,8.0,28,0.00,,,0.00,weatherlink.com 1.10,2013-05-19 23:34:00,
2013-05-19 17:49:00,67.4,29.0,29.51,NW,317,4.0,7.0,24,0.00,,,0.00,weatherlink.com 1.10,2013-05-19 23:49:00,
2013-05-19 18:03:00,67.7,31.0,29.51,NW,315,3.0,9.0,25,0.00,,,0.00,weatherlink.com 1.10,2013-05-20 00:03:00,
2013-05-19 18:19:00,65.9,29.0,29.52,WNW,302,3.0,13.0,25,0.00,,,0.00,weatherlink.com 1.10,2013-05-20 00:19:00,
2013-05-19 18:34:00,65.9,28.0,29.52,SSW,213,4.0,10.0,24,0.00,,,0.00,weatherlink.com 1.10,2013-05-20 00:34:00,
2013-05-19 18:49:00,65.7,27.0,29.52,North,349,8.0,14.0,23,0.00,,,0.00,weatherlink.com 1.10,2013-05-20 00:49:00,
2013-05-19 19:04:00,64.9,27.0,29.54,WNW,290,5.0,13.0,24,0.00,,,0.00,weatherlink.com 1.10,2013-05-20 01:04:00,
2013-05-19 19:19:00,63.4,27.0,29.54,WSW,253,5.0,11.0,25,0.00,,,0.00,weatherlink.com 1.10,2013-05-20 01:19:00,
2013-05-19 19:34:00,62.4,28.0,29.54,West,280,1.0,11.0,27,0.00,,,0.00,weatherlink.com 1.10,2013-05-20 01:34:00,
2013-05-19 19:49:00,61.7,28.0,29.55,NNW,339,4.0,7.0,28,0.00,,,0.00,weatherlink.com 1.10,2013-05-20 01:49:00,
2013-05-19 20:04:00,61.1,28.0,29.57,ENE,67,5.0,7.0,28,0.00,,,0.00,weatherlink.com 1.10,2013-05-20 02:04:00,
2013-05-19 20:20:00,58.6,39.0,29.58,East,86,4.0,6.0,48,0.00,,,0.00,weatherlink.com 1.10,2013-05-20 02:20:00,
2013-05-19 20:35:00,57.4,38.0,29.58,SSE,158,0.0,6.0,49,0.00,,,0.00,weatherlink.com 1.10,2013-05-20 02:35:00,
2013-05-19 20:50:00,56.7,39.0,29.58,SW,226,0.0,6.0,51,0.00,,,0.00,weatherlink.com 1.10,2013-05-20 02:50:00,
2013-05-19 21:05:00,56.0,38.0,29.59,East,79,1.0,5.0,52,0.00,,,0.00,weatherlink.com 1.10,2013-05-20 03:05:00,
2013-05-19 21:20:00,54.9,38.0,29.60,WSW,238,0.0,1.0,54,0.00,,,0.00,weatherlink.com 1.10,2013-05-20 03:20:00,
2013-05-19 21:35:00,54.1,39.0,29.61,SW,233,0.0,1.0,56,0.00,,,0.00,weatherlink.com 1.10,2013-05-20 03:35:00,
2013-05-19 21:50:00,52.7,38.0,29.61,SE,127,0.0,2.0,58,0.00,,,0.00,weatherlink.com 1.10,2013-05-20 03:50:00,
2013-05-19 22:05:00,51.9,38.0,29.61,SW,221,0.0,1.0,60,0.00,,,0.00,weatherlink.com 1.10,2013-05-20 04:05:00,
2013-05-19 22:20:00,52.4,39.0,29.61,SSW,207,0.0,3.0,60,0.00,,,0.00,weatherlink.com 1.10,2013-05-20 04:20:00,
2013-05-19 22:35:00,53.2,37.0,29.61,WSW,256,1.0,5.0,55,0.00,,,0.00,weatherlink.com 1.10,2013-05-20 04:35:00,
2013-05-19 22:50:00,52.3,37.0,29.61,SSE,167,0.0,2.0,57,0.00,,,0.00,weatherlink.com 1.10,2013-05-20 04:50:00,
2013-05-19 23:05:00,50.9,37.0,29.61,SSW,204,1.0,2.0,59,0.00,,,0.00,weatherlink.com 1.10,2013-05-20 05:05:00,
2013-05-19 23:20:00,50.4,37.0,29.61,South,191,0.0,1.0,60,0.00,,,0.00,weatherlink.com 1.10,2013-05-20 05:20:00,
2013-05-19 23:35:00,49.4,37.0,29.61,South,191,0.0,1.0,63,0.00,,,0.00,weatherlink.com 1.10,2013-05-20 05:35:00,
2013-05-19 23:50:00,50.5,37.0,29.61,SSW,208,1.0,3.0,61,0.00,,,0.00,weatherlink.com 1.10,2013-05-20 05:50:00,